Time,TemperatureF,DewpointF,PressureIn,WindDirection,WindDirectionDegrees,WindSpeedMPH,WindSpeedGustMPH,Humidity,HourlyPrecipIn,Conditions,Clouds,dailyrainin,SoftwareType,DateUTC
2013-02-25 00:01:00,29.0,28.0,29.86,SSW,194,1.0,3.0,97,0.00,,,0.05,,2013-02-25 05:01:00,
2013-02-25 00:11:00,29.0,28.0,29.86,SSW,194,1.0,3.0,97,0.00,,,0.05,,2013-02-25 05:11:00,
2013-02-25 00:22:00,29.0,28.0,29.86,WNW,295,1.0,4.0,97,0.00,,,0.05,,2013-02-25 05:22:00,
2013-02-25 00:32:00,29.0,28.0,29.87,WSW,253,2.0,5.0,96,0.00,,,0.05,,2013-02-25 05:32:00,
2013-02-25 00:42:00,29.0,28.0,29.87,WSW,253,2.0,5.0,96,0.00,,,0.05,,2013-02-25 05:42:00,
2013-02-25 00:52:00,29.0,28.0,29.87,NW,311,1.0,5.0,96,0.00,,,0.05,,2013-02-25 05:52:00,
2013-02-25 01:02:00,28.0,27.0,29.95,WSW,247,0.0,4.0,95,0.00,,,0.05,,2013-02-25 06:02:00,
2013-02-25 01:11:00,28.0,27.0,29.95,WSW,247,0.0,4.0,95,0.00,,,0.05,,2013-02-25 06:11:00,
2013-02-25 01:21:00,29.0,28.0,29.88,WNW,282,1.0,5.0,95,0.00,,,0.05,,2013-02-25 06:21:00,
2013-02-25 01:32:00,29.0,28.0,29.89,SW,217,1.0,4.0,96,0.00,,,0.05,,2013-02-25 06:32:00,
2013-02-25 01:42:00,29.0,28.0,29.89,SW,217,1.0,4.0,96,0.00,,,0.05,,2013-02-25 06:42:00,
2013-02-25 01:52:00,29.0,28.0,29.90,NNW,328,2.0,5.0,96,0.00,,,0.05,,2013-02-25 06:52:00,
2013-02-25 02:01:00,29.0,28.0,29.90,West,277,2.0,4.0,96,0.00,,,0.05,,2013-02-25 07:01:00,
2013-02-25 02:11:00,29.0,28.0,29.90,West,260,1.0,3.0,96,0.00,,,0.05,,2013-02-25 07:11:00,
2013-02-25 02:21:00,29.0,28.0,29.90,West,260,1.0,3.0,96,0.00,,,0.05,,2013-02-25 07:21:00,
2013-02-25 02:32:00,29.0,28.0,29.90,North,350,1.0,3.0,96,0.00,,,0.05,,2013-02-25 07:32:00,
2013-02-25 02:42:00,29.0,28.0,29.90,North,350,1.0,3.0,96,0.00,,,0.05,,2013-02-25 07:42:00,
2013-02-25 02:52:00,29.0,28.0,29.91,WNW,303,1.0,4.0,96,0.00,,,0.05,,2013-02-25 07:52:00,
2013-02-25 03:01:00,29.0,28.0,29.91,NNW,346,1.0,6.0,95,0.00,,,0.05,,2013-02-25 08:01:00,
2013-02-25 03:11:00,29.0,28.0,29.91,NNW,346,1.0,6.0,95,0.00,,,0.05,,2013-02-25 08:11:00,
2013-02-25 03:22:00,29.0,28.0,29.91,NNW,336,2.0,5.0,96,0.00,,,0.05,,2013-02-25 08:22:00,
2013-02-25 03:32:00,29.0,28.0,29.92,North,355,1.0,4.0,96,0.00,,,0.05,,2013-02-25 08:32:00,
2013-02-25 03:42:00,29.0,28.0,29.92,North,355,1.0,4.0,96,0.00,,,0.05,,2013-02-25 08:42:00,
2013-02-25 03:52:00,29.0,28.0,29.92,SW,218,2.0,4.0,96,0.00,,,0.05,,2013-02-25 08:52:00,
2013-02-25 04:01:00,29.0,28.0,29.92,West,268,1.0,5.0,95,0.00,,,0.05,,2013-02-25 09:01:00,
2013-02-25 04:12:00,29.0,28.0,29.92,West,268,1.0,5.0,95,0.00,,,0.05,,2013-02-25 09:12:00,
2013-02-25 04:21:00,28.0,27.0,30.00,NNE,13,0.0,4.0,96,0.00,,,0.05,,2013-02-25 09:21:00,
2013-02-25 04:32:00,29.0,28.0,29.93,WSW,252,1.0,2.0,96,0.00,,,0.05,,2013-02-25 09:32:00,
2013-02-25 04:42:00,29.0,28.0,29.93,WSW,252,1.0,2.0,96,0.00,,,0.05,,2013-02-25 09:42:00,
2013-02-25 04:52:00,29.0,28.0,29.94,NW,305,1.0,3.0,96,0.00,,,0.05,,2013-02-25 09:52:00,
2013-02-25 05:01:00,29.0,28.0,29.94,WSW,238,1.0,2.0,95,0.00,,,0.05,,2013-02-25 10:01:00,
2013-02-25 05:11:00,29.0,28.0,29.94,WSW,238,1.0,2.0,95,0.00,,,0.05,,2013-02-25 10:11:00,
2013-02-25 05:21:00,29.0,28.0,29.94,WSW,242,0.0,2.0,96,0.00,,,0.05,,2013-02-25 10:21:00,
2013-02-25 05:32:00,28.0,27.0,29.94,West,274,0.0,1.0,96,0.00,,,0.05,,2013-02-25 10:32:00,
2013-02-25 05:42:00,28.0,27.0,29.94,West,274,0.0,1.0,96,0.00,,,0.05,,2013-02-25 10:42:00,
2013-02-25 05:52:00,28.0,27.0,29.95,WNW,301,0.0,2.0,95,0.00,,,0.05,,2013-02-25 10:52:00,
2013-02-25 06:01:00,28.0,27.0,29.96,SSW,206,0.0,2.0,95,0.00,,,0.05,,2013-02-25 11:01:00,
2013-02-25 06:11:00,28.0,27.0,29.96,SSW,206,0.0,2.0,95,0.00,,,0.05,,2013-02-25 11:11:00,
2013-02-25 06:22:00,28.0,27.0,29.96,WNW,291,1.0,2.0,96,0.00,,,0.05,,2013-02-25 11:22:00,
2013-02-25 06:32:00,28.0,27.0,29.97,WNW,290,0.0,2.0,96,0.00,,,0.05,,2013-02-25 11:32:00,
2013-02-25 06:42:00,28.0,27.0,29.97,WNW,290,0.0,2.0,96,0.00,,,0.05,,2013-02-25 11:42:00,
2013-02-25 06:52:00,28.0,27.0,29.97,WNW,287,1.0,3.0,95,0.00,,,0.05,,2013-02-25 11:52:00,
2013-02-25 07:02:00,29.0,28.0,29.98,SW,214,1.0,4.0,95,0.00,,,0.05,,2013-02-25 12:02:00,
2013-02-25 07:11:00,29.0,28.0,29.98,SW,214,1.0,4.0,95,0.00,,,0.05,,2013-02-25 12:11:00,
2013-02-25 07:22:00,29.0,27.0,29.99,WNW,286,1.0,2.0,94,0.00,,,0.05,,2013-02-25 12:22:00,
2013-02-25 07:32:00,29.0,27.0,30.07,NW,312,0.0,4.0,94,0.00,,,0.05,,2013-02-25 12:32:00,
2013-02-25 07:42:00,29.0,27.0,30.07,NW,312,0.0,4.0,94,0.00,,,0.05,,2013-02-25 12:42:00,
2013-02-25 07:56:00,29.0,27.0,30.00,NNW,346,1.0,4.0,93,0.00,,,0.05,,2013-02-25 12:56:00,
2013-02-25 08:02:00,30.0,28.0,30.01,NW,324,1.0,3.0,93,0.00,,,0.05,,2013-02-25 13:02:00,
2013-02-25 08:12:00,30.0,28.0,30.01,NW,324,1.0,3.0,93,0.00,,,0.05,,2013-02-25 13:12:00,
2013-02-25 08:23:00,30.0,28.0,30.01,NW,313,1.0,5.0,93,0.00,,,0.05,,2013-02-25 13:23:00,
2013-02-25 08:32:00,30.0,28.0,30.01,WSW,246,1.0,3.0,94,0.00,,,0.05,,2013-02-25 13:32:00,
2013-02-25 08:42:00,30.0,28.0,30.01,WSW,246,1.0,3.0,94,0.00,,,0.05,,2013-02-25 13:42:00,
2013-02-25 08:52:00,30.0,28.0,30.02,WSW,246,1.0,3.0,93,0.00,,,0.05,,2013-02-25 13:52:00,
2013-02-25 09:03:00,30.0,28.0,30.03,NW,308,2.0,4.0,93,0.00,,,0.05,,2013-02-25 14:03:00,
2013-02-25 09:18:00,30.0,28.0,30.03,NW,308,2.0,4.0,93,0.00,,,0.05,,2013-02-25 14:18:00,
2013-02-25 09:32:00,31.0,29.0,30.03,NNE,17,2.0,5.0,93,0.00,,,0.05,,2013-02-25 14:32:00,
2013-02-25 09:42:00,31.0,29.0,30.03,NNE,17,2.0,5.0,93,0.00,,,0.05,,2013-02-25 14:42:00,
2013-02-25 09:52:00,31.0,29.0,30.03,North,1,2.0,6.0,93,0.00,,,0.05,,2013-02-25 14:52:00,
2013-02-25 10:03:00,31.0,29.0,30.04,NW,305,1.0,3.0,93,0.00,,,0.05,,2013-02-25 15:03:00,
2013-02-25 10:11:00,31.0,29.0,30.04,NW,305,1.0,3.0,93,0.00,,,0.05,,2013-02-25 15:11:00,
2013-02-25 10:22:00,31.0,29.0,30.04,NE,39,1.0,6.0,92,0.00,,,0.05,,2013-02-25 15:22:00,
2013-02-25 10:32:00,31.0,29.0,30.04,NNE,19,2.0,5.0,92,0.00,,,0.05,,2013-02-25 15:32:00,
2013-02-25 10:42:00,31.0,29.0,30.04,NNE,19,2.0,5.0,92,0.00,,,0.05,,2013-02-25 15:42:00,
2013-02-25 10:52:00,31.0,29.0,30.12,NNW,341,1.0,4.0,92,0.00,,,0.05,,2013-02-25 15:52:00,
2013-02-25 11:02:00,32.0,30.0,30.05,NNW,331,1.0,5.0,91,0.00,,,0.05,,2013-02-25 16:02:00,
2013-02-25 11:12:00,32.0,30.0,30.05,NNW,331,1.0,5.0,91,0.00,,,0.05,,2013-02-25 16:12:00,
2013-02-25 11:22:00,32.0,30.0,30.05,North,4,1.0,4.0,91,0.00,,,0.05,,2013-02-25 16:22:00,
2013-02-25 11:32:00,32.0,30.0,30.05,NW,308,1.0,3.0,91,0.00,,,0.05,,2013-02-25 16:32:00,
2013-02-25 11:42:00,32.0,30.0,30.05,NW,308,1.0,3.0,91,0.00,,,0.05,,2013-02-25 16:42:00,
2013-02-25 11:52:00,32.0,30.0,30.05,WNW,303,1.0,4.0,91,0.00,,,0.05,,2013-02-25 16:52:00,
2013-02-25 12:01:00,32.0,30.0,30.05,NW,305,1.0,5.0,91,0.00,,,0.05,,2013-02-25 17:01:00,
2013-02-25 12:11:00,32.0,30.0,30.05,NW,305,1.0,5.0,91,0.00,,,0.05,,2013-02-25 17:11:00,
2013-02-25 12:21:00,32.0,30.0,30.05,NNW,348,2.0,5.0,91,0.00,,,0.05,,2013-02-25 17:21:00,
2013-02-25 12:32:00,32.0,29.0,30.05,North,350,3.0,6.0,90,0.00,,,0.05,,2013-02-25 17:32:00,
2013-02-25 12:42:00,32.0,29.0,30.05,North,350,3.0,6.0,90,0.00,,,0.05,,2013-02-25 17:42:00,
2013-02-25 12:52:00,33.0,30.0,30.06,North,7,2.0,6.0,90,0.00,,,0.05,,2013-02-25 17:52:00,
2013-02-25 13:02:00,32.0,30.0,30.06,WNW,295,2.0,7.0,91,0.00,,,0.05,,2013-02-25 18:02:00,
2013-02-25 13:12:00,32.0,30.0,30.06,WNW,295,2.0,7.0,91,0.00,,,0.05,,2013-02-25 18:12:00,
2013-02-25 13:21:00,32.0,30.0,30.07,North,8,2.0,5.0,91,0.00,,,0.05,,2013-02-25 18:21:00,
2013-02-25 13:33:00,32.0,30.0,30.07,NNE,17,2.0,5.0,92,0.00,,,0.05,,2013-02-25 18:33:00,
2013-02-25 13:42:00,32.0,30.0,30.07,NNE,17,2.0,5.0,92,0.00,,,0.05,,2013-02-25 18:42:00,
2013-02-25 13:52:00,32.0,30.0,30.08,North,353,2.0,6.0,91,0.00,,,0.05,,2013-02-25 18:52:00,
2013-02-25 14:01:00,32.0,30.0,30.15,NW,310,0.0,3.0,91,0.00,,,0.05,,2013-02-25 19:01:00,
2013-02-25 14:11:00,32.0,30.0,30.15,NW,310,0.0,3.0,91,0.00,,,0.05,,2013-02-25 19:11:00,
2013-02-25 14:22:00,32.0,30.0,30.09,NNW,329,1.0,3.0,91,0.00,,,0.05,,2013-02-25 19:22:00,
2013-02-25 14:32:00,32.0,30.0,30.09,WNW,289,1.0,4.0,91,0.00,,,0.05,,2013-02-25 19:32:00,
2013-02-25 14:42:00,32.0,30.0,30.09,WNW,289,1.0,4.0,91,0.00,,,0.05,,2013-02-25 19:42:00,
2013-02-25 14:52:00,32.0,29.0,30.10,WSW,250,1.0,3.0,90,0.00,,,0.05,,2013-02-25 19:52:00,
2013-02-25 15:01:00,32.0,29.0,30.10,NW,306,1.0,3.0,90,0.00,,,0.05,,2013-02-25 20:01:00,
2013-02-25 15:11:00,32.0,29.0,30.10,NW,306,1.0,3.0,90,0.00,,,0.05,,2013-02-25 20:11:00,
2013-02-25 15:22:00,32.0,29.0,30.10,West,268,1.0,2.0,90,0.00,,,0.04,,2013-02-25 20:22:00,
2013-02-25 15:32:00,32.0,30.0,30.11,West,271,0.0,3.0,91,0.00,,,0.04,,2013-02-25 20:32:00,
2013-02-25 15:42:00,32.0,30.0,30.11,West,271,0.0,3.0,91,0.00,,,0.04,,2013-02-25 20:42:00,
2013-02-25 15:52:00,33.0,30.0,30.11,West,269,1.0,3.0,90,0.00,,,0.04,,2013-02-25 20:52:00,
2013-02-25 16:02:00,33.0,31.0,30.11,NNW,339,0.0,3.0,91,0.00,,,0.04,,2013-02-25 21:02:00,
2013-02-25 16:11:00,33.0,31.0,30.11,NNW,339,0.0,3.0,91,0.00,,,0.04,,2013-02-25 21:11:00,
2013-02-25 16:21:00,33.0,30.0,30.11,WSW,255,1.0,3.0,90,0.00,,,0.01,,2013-02-25 21:21:00,
2013-02-25 16:32:00,33.0,31.0,30.11,North,351,1.0,4.0,92,0.01,,,0.02,,2013-02-25 21:32:00,
2013-02-25 16:42:00,33.0,31.0,30.11,North,351,1.0,4.0,92,0.01,,,0.02,,2013-02-25 21:42:00,
2013-02-25 16:52:00,33.0,31.0,30.11,NW,307,0.0,3.0,92,0.01,,,0.02,,2013-02-25 21:52:00,
2013-02-25 17:01:00,32.0,30.0,30.19,NNW,327,1.0,4.0,92,0.01,,,0.02,,2013-02-25 22:01:00,
2013-02-25 17:11:00,32.0,30.0,30.19,NNW,327,1.0,4.0,92,0.01,,,0.02,,2013-02-25 22:11:00,
2013-02-25 17:21:00,32.0,30.0,30.12,NW,306,0.0,1.0,93,0.01,,,0.02,,2013-02-25 22:21:00,
2013-02-25 17:32:00,32.0,30.0,30.12,WNW,303,1.0,3.0,94,0.00,,,0.02,,2013-02-25 22:32:00,
2013-02-25 17:42:00,32.0,30.0,30.12,WNW,303,1.0,3.0,94,0.00,,,0.02,,2013-02-25 22:42:00,
2013-02-25 17:52:00,32.0,30.0,30.12,WNW,289,0.0,2.0,94,0.00,,,0.02,,2013-02-25 22:52:00,
2013-02-25 18:01:00,32.0,30.0,30.12,WSW,252,0.0,1.0,94,0.00,,,0.02,,2013-02-25 23:01:00,
2013-02-25 18:11:00,32.0,30.0,30.12,WSW,252,0.0,1.0,94,0.00,,,0.02,,2013-02-25 23:11:00,
2013-02-25 18:22:00,31.0,30.0,30.12,WSW,250,0.0,1.0,95,0.00,,,0.01,,2013-02-25 23:22:00,
2013-02-25 18:32:00,31.0,30.0,30.13,WSW,250,0.0,1.0,95,0.00,,,0.01,,2013-02-25 23:32:00,
2013-02-25 18:42:00,31.0,30.0,30.13,WSW,250,0.0,1.0,95,0.00,,,0.01,,2013-02-25 23:42:00,
2013-02-25 18:52:00,31.0,29.0,30.14,NW,325,0.0,2.0,94,0.00,,,0.01,,2013-02-25 23:52:00,
2013-02-25 19:02:00,31.0,30.0,30.14,SW,230,0.0,1.0,95,0.00,,,0.01,,2013-02-26 00:02:00,
2013-02-25 19:12:00,31.0,30.0,30.14,SW,230,0.0,1.0,95,0.00,,,0.01,,2013-02-26 00:12:00,
2013-02-25 19:22:00,31.0,29.0,30.15,North,357,0.0,2.0,94,0.00,,,0.01,,2013-02-26 00:22:00,
2013-02-25 19:32:00,31.0,29.0,30.15,SSW,199,0.0,2.0,94,0.00,,,0.01,,2013-02-26 00:32:00,
2013-02-25 19:42:00,31.0,29.0,30.15,SSW,199,0.0,2.0,94,0.00,,,0.01,,2013-02-26 00:42:00,
2013-02-25 19:52:00,31.0,29.0,30.16,West,260,1.0,4.0,94,0.00,,,0.01,,2013-02-26 00:52:00,
2013-02-25 20:02:00,31.0,29.0,30.16,NNW,327,0.0,4.0,94,0.00,,,0.01,,2013-02-26 01:02:00,
2013-02-25 20:11:00,31.0,29.0,30.16,NNW,327,0.0,4.0,94,0.00,,,0.01,,2013-02-26 01:11:00,
2013-02-25 20:21:00,31.0,29.0,30.24,SW,227,1.0,4.0,94,0.00,,,0.01,,2013-02-26 01:21:00,
2013-02-25 20:32:00,31.0,29.0,30.16,WSW,256,0.0,6.0,94,0.00,,,0.01,,2013-02-26 01:32:00,
2013-02-25 20:42:00,31.0,29.0,30.16,WSW,256,0.0,6.0,94,0.00,,,0.01,,2013-02-26 01:42:00,
2013-02-25 20:52:00,31.0,29.0,30.16,SW,225,0.0,2.0,94,0.00,,,0.01,,2013-02-26 01:52:00,
2013-02-25 21:01:00,31.0,29.0,30.17,SW,231,1.0,3.0,93,0.00,,,0.01,,2013-02-26 02:01:00,
2013-02-25 21:11:00,31.0,29.0,30.17,SW,231,1.0,3.0,93,0.00,,,0.01,,2013-02-26 02:11:00,
2013-02-25 21:21:00,31.0,29.0,30.16,WSW,253,1.0,5.0,94,0.00,,,0.01,,2013-02-26 02:21:00,
2013-02-25 21:32:00,31.0,29.0,30.16,WSW,243,1.0,4.0,94,0.00,,,0.01,,2013-02-26 02:32:00,
2013-02-25 21:42:00,31.0,29.0,30.16,WSW,243,1.0,4.0,94,0.00,,,0.01,,2013-02-26 02:42:00,
2013-02-25 21:52:00,31.0,29.0,30.16,SW,234,0.0,1.0,94,0.00,,,0.01,,2013-02-26 02:52:00,
2013-02-25 22:02:00,31.0,30.0,30.17,SW,231,0.0,1.0,95,0.00,,,0.01,,2013-02-26 03:02:00,
2013-02-25 22:12:00,31.0,30.0,30.17,SW,231,0.0,1.0,95,0.00,,,0.01,,2013-02-26 03:12:00,
2013-02-25 22:22:00,31.0,29.0,30.17,WSW,249,0.0,2.0,94,0.00,,,0.01,,2013-02-26 03:22:00,
2013-02-25 22:32:00,31.0,29.0,30.16,SW,230,1.0,2.0,93,0.00,,,0.01,,2013-02-26 03:32:00,
2013-02-25 22:42:00,31.0,29.0,30.16,SW,230,1.0,2.0,93,0.00,,,0.01,,2013-02-26 03:42:00,
2013-02-25 22:52:00,31.0,29.0,30.16,WSW,240,1.0,3.0,93,0.00,,,0.01,,2013-02-26 03:52:00,
2013-02-25 23:01:00,31.0,29.0,30.17,SW,223,0.0,2.0,93,0.00,,,0.01,,2013-02-26 04:01:00,
2013-02-25 23:11:00,31.0,29.0,30.17,SW,223,0.0,2.0,93,0.00,,,0.01,,2013-02-26 04:11:00,
2013-02-25 23:22:00,31.0,29.0,30.17,SW,231,0.0,1.0,93,0.00,,,0.01,,2013-02-26 04:22:00,
2013-02-25 23:32:00,31.0,29.0,30.18,WSW,245,0.0,2.0,94,0.00,,,0.01,,2013-02-26 04:32:00,
2013-02-25 23:42:00,31.0,29.0,30.18,WSW,245,0.0,2.0,94,0.00,,,0.01,,2013-02-26 04:42:00,
2013-02-25 23:52:00,30.0,29.0,30.18,WSW,253,0.0,3.0,95,0.00,,,0.01,,2013-02-26 04:52:00,